{"data":{"norad_id":51142,"epoch":"2026-09-20T03:44:24.888768Z","epoch_age_seconds":77920,"freshness":"FRESH","line1":"1 51142U 22005AQ  26263.15584362  .00028093  00000+0  96598-3 0  9996","line2":"2 51142  53.2169 107.2929 0005975 105.5536 254.6125 15.29887326258643","mean_motion":15.29887326,"eccentricity":0.0005975,"inclination_deg":53.2169,"raan_deg":107.2929,"arg_perigee_deg":105.5536,"mean_anomaly_deg":254.6125,"bstar":0.00096598,"rev_number":25864,"period_min":94.124578688091,"perigee_km":472.05338084782,"apogee_km":480.24425239869,"semimajor_km":6854.2858166233,"source":"CELESTRAK","updated_at":"2026-09-20T09:00:39.591427Z"}}